Location: Orangeville
(43.9200°N, 80.0943°W)
Time: 13:00:41
(UTC-05:00)

ISS - Pass Details

Date: 29 November 2021
Orbit: 413 x 422 km, 51.6° (Epoch: 22 January)

Event Time Altitude Azimuth Distance (km) Brightness Sun altitude
Rises 17:07:06 0° 280° (W) 2,383 1.1 -4.4°
Reaches altitude 10° 17:09:29 10° 295° (WNW) 1,517 -0.3 -4.8°
Maximum altitude 17:12:18 24° 350° (N) 937 -2.1 -5.3°
Drops below altitude 10° 17:15:08 10° 47° (NE) 1,513 -1.5 -5.7°
Enters shadow 17:15:48 - 53° (NE) 1,745 -1.3 -5.8°
